Regional Weather Roundup
Issued by NWS State College, PA

Home | Current Version | Previous Version | Graphics & Text | Print | Product List | Glossary On
Versions: 1 2 3 4 5 6 7 8 9 10 11 12 13 14 15 16 17 18 19 20 21 22 23 24 25 26 27 28 29 30 31 32 33 34 35 36 37 38 39 40 41 42 43 44 45 46 47 48 49 50
000
ASUS41 KCTP 230303
RWRCTP

REGIONAL WEATHER ROUNDUP
NATIONAL WEATHER SERVICE STATE COLLEGE PA
1000 PM EST WED FEB 22 2017

Note: "fair" indicates few or no clouds below 12,000 feet with no
significant weather and/or obstructions to visibility.

* = STATION THAT DOES NOT REPORT PRECIPITATION /E.G. RAIN...SNOW...ETC/
    THUNDER OR FOG.

PAZ002>004-007>009-013>016-020>023-029>032-230400-
WESTERN PENNSYLVANIA

CITY           SKY/WX    TMP DP  RH WIND       PRES   REMARKS
ERIE           MOCLDY    57  51  80 S9        29.80F
MEADVILLE      CLOUDY    54  51  90 S5        29.83S
FRANKLIN*      CLOUDY    55  48  76 SW8       29.86S
NEW CASTLE     CLOUDY    58  51  78 SW6       29.86R
BEAVER COUNTY  NOT AVBL
BUTLER*        CLOUDY    59  48  67 SW7       29.87R
PITTSBURGH INT MOCLDY    58  52  80 W6        29.86R
PITTSBURGH     CLOUDY    58  48  69 SW9       29.86R
INDIANA*       CLOUDY    54  46  76 SW3       29.88S
LATROBE        MOCLDY    59  50  72 SW9       29.88R
WASHINGTON CO* CLOUDY    57  48  72 SW7       29.89S
$$

PAZ004>006-010>012-017>019-024>028-033>037-041-042-045-046-049>053-230400-
CENTRAL PENNSYLVANIA

CITY           SKY/WX    TMP DP  RH WIND       PRES   REMARKS
BRADFORD       CLOUDY    47  47 100 SE3       29.85S FOG
DUBOIS         CLOUDY    55  42  61 VRB3      29.84S
CLEARFIELD       N/A    N/A N/A N/A MISG      29.86S
JOHNSTOWN      MOCLDY    55  43  63 SW5       29.86S
ALTOONA        CLOUDY    54  44  69 S5        29.88R
STATE COLLEGE  NOT AVBL
WILLIAMSPORT   CLEAR     44  36  73 S3        29.88S
SELINSGROVE    CLEAR     38  35  89 CALM      29.89S
FT INDIANTOWN  CLOUDY    44  44  99 CALM      29.90S
CAPITAL CITY   CLOUDY    52  41  66 CALM      29.89F
HARRISBURG     MOCLDY    46  41  82 E6        29.89S
YORK           CLOUDY    53  45  74 S3        29.90R
$$

PAZ038>040-043-044-047-048-054-055-060>062-067>071-230400-
EASTERN PENNSYLVANIA

CITY           SKY/WX    TMP DP  RH WIND       PRES   REMARKS
SCRANTON       CLEAR     47  40  76 SE3       29.87F
MOUNT POCONO   CLEAR     39  37  92 NW3       29.89S
ALLENTOWN      CLOUDY    42  36  79 CALM      29.90S
QUAKERTOWN*    PTCLDY    43  39  87 CALM      29.92S
READING        CLOUDY    51  43  74 S3        29.90S
LANCASTER      CLOUDY    48  43  82 E3        29.90F
COATESVILLE    CLOUDY    50  43  76 CALM      29.92F
POTTSTOWN      PTCLDY    45  40  82 CALM      29.93S
BLUE BELL      PTCLDY    43  41  93 CALM      29.91S
DOYLESTOWN     PTCLDY    48  42  80 CALM      29.90F
WILLOW GROVE   NOT AVBL
NORTH PHILA    CLEAR     47  41  80 CALM      29.93S
PHILADELPHIA   CLOUDY    46  42  86 CALM      29.92F
$$



USA.gov is the U.S. government's official web portal to all federal, state and local government web resources and services.